{"data":{"norad_id":62146,"epoch":"2026-09-21T08:35:50.698752Z","epoch_age_seconds":107644,"freshness":"FRESH","line1":"1 62146U 24224H   26264.35822568  .00007058  00000+0  26569-3 0  9992","line2":"2 62146  43.0007 133.1898 0001386 265.9733  94.0961 15.27589352102404","mean_motion":15.27589352,"eccentricity":0.0001386,"inclination_deg":43.0007,"raan_deg":133.1898,"arg_perigee_deg":265.9733,"mean_anomaly_deg":94.0961,"bstar":0.00026569,"rev_number":10240,"period_min":94.266171606569,"perigee_km":482.07013641847,"apogee_km":483.97204944183,"semimajor_km":6861.1580929302,"source":"CELESTRAK","updated_at":"2026-09-22T09:00:49.530447Z"}}